Time,TemperatureF,DewpointF,PressureIn,WindDirection,WindDirectionDegrees,WindSpeedMPH,WindSpeedGustMPH,Humidity,HourlyPrecipIn,Conditions,Clouds,dailyrainin,SolarRadiationWatts/m^2,SoftwareType,DateUTC
2013-10-06 00:03:00,54.0,50.0,-100.00,NNW,340,5.0,9.0,87,0.04,,,0.34,0.000000,,2013-10-06 05:03:00,
2013-10-06 00:43:00,54.0,50.0,-100.00,NW,318,4.0,9.0,85,0.00,,,0.34,0.000000,,2013-10-06 05:43:00,
2013-10-06 00:52:00,54.0,50.0,-100.00,NW,318,4.0,9.0,85,0.00,,,0.34,0.000000,,2013-10-06 05:52:00,
2013-10-06 01:02:00,54.0,50.0,-100.00,NW,318,4.0,9.0,85,0.00,,,0.34,0.000000,,2013-10-06 06:02:00,
2013-10-06 01:42:00,53.0,49.0,-100.00,NW,316,3.0,7.0,86,0.00,,,-99.99,0.000000,,2013-10-06 06:42:00,
2013-10-06 01:52:00,53.0,49.0,-100.00,NW,316,3.0,7.0,86,0.00,,,-99.99,0.000000,,2013-10-06 06:52:00,
2013-10-06 02:02:00,53.0,49.0,-100.00,NW,316,3.0,7.0,86,0.00,,,-99.99,0.000000,,2013-10-06 07:02:00,
2013-10-06 02:43:00,51.0,48.0,-100.00,West,262,2.0,5.0,89,0.00,,,0.34,0.000000,,2013-10-06 07:43:00,
2013-10-06 02:52:00,51.0,48.0,-100.00,West,262,2.0,5.0,89,0.00,,,0.34,0.000000,,2013-10-06 07:52:00,
2013-10-06 03:02:00,51.0,48.0,-100.00,West,262,2.0,5.0,89,0.00,,,0.34,0.000000,,2013-10-06 08:02:00,
2013-10-06 03:42:00,49.0,46.0,-100.00,SSW,207,2.0,4.0,90,0.00,,,0.34,0.000000,,2013-10-06 08:42:00,
2013-10-06 03:53:00,49.0,46.0,-100.00,SSW,207,2.0,4.0,90,0.00,,,0.34,0.000000,,2013-10-06 08:53:00,
2013-10-06 04:01:00,49.0,46.0,-100.00,SSW,207,2.0,4.0,90,0.00,,,0.34,0.000000,,2013-10-06 09:01:00,
2013-10-06 04:43:00,48.0,45.0,-100.00,South,186,2.0,4.0,91,0.00,,,0.34,0.000000,,2013-10-06 09:43:00,
2013-10-06 04:53:00,48.0,45.0,-100.00,South,186,2.0,4.0,91,0.00,,,0.34,0.000000,,2013-10-06 09:53:00,
2013-10-06 05:03:00,48.0,45.0,-100.00,South,186,2.0,4.0,91,0.00,,,0.34,0.000000,,2013-10-06 10:03:00,
2013-10-06 05:43:00,48.0,45.0,-100.00,West,264,2.0,3.0,91,0.00,,,0.34,0.000000,,2013-10-06 10:43:00,
2013-10-06 05:53:00,48.0,45.0,-100.00,West,264,2.0,3.0,91,0.00,,,0.34,0.000000,,2013-10-06 10:53:00,
2013-10-06 06:02:00,48.0,45.0,-100.00,West,264,2.0,3.0,91,0.00,,,0.34,0.000000,,2013-10-06 11:02:00,
2013-10-06 06:42:00,48.0,46.0,-100.00,SW,214,2.0,4.0,92,0.00,,,0.34,0.000000,,2013-10-06 11:42:00,
2013-10-06 06:52:00,48.0,46.0,-100.00,SW,214,2.0,4.0,92,0.00,,,0.34,0.000000,,2013-10-06 11:52:00,
2013-10-06 07:02:00,48.0,46.0,-100.00,SW,214,2.0,4.0,92,0.00,,,0.34,0.000000,,2013-10-06 12:02:00,
2013-10-06 07:42:00,47.0,45.0,-100.00,SSE,165,1.0,3.0,92,0.00,,,0.34,0.000000,,2013-10-06 12:42:00,
2013-10-06 07:52:00,47.0,45.0,-100.00,SSE,165,1.0,3.0,92,0.00,,,0.34,0.000000,,2013-10-06 12:52:00,
2013-10-06 08:02:00,47.0,45.0,-100.00,SSE,165,1.0,3.0,92,0.00,,,0.34,0.000000,,2013-10-06 13:02:00,
2013-10-06 08:42:00,49.0,47.0,-100.00,WNW,300,2.0,5.0,92,0.01,,,0.35,10.000000,,2013-10-06 13:42:00,
2013-10-06 08:52:00,49.0,47.0,-100.00,WNW,300,2.0,5.0,92,0.01,,,0.35,10.000000,,2013-10-06 13:52:00,
2013-10-06 09:02:00,49.0,47.0,-100.00,WNW,300,2.0,5.0,92,0.01,,,0.35,10.000000,,2013-10-06 14:02:00,
2013-10-06 09:42:00,55.0,51.0,-100.00,NW,313,4.0,10.0,85,0.00,,,0.35,30.000000,,2013-10-06 14:42:00,
2013-10-06 09:52:00,55.0,51.0,-100.00,NW,313,4.0,10.0,85,0.00,,,0.35,30.000000,,2013-10-06 14:52:00,
2013-10-06 10:02:00,55.0,51.0,-100.00,NW,313,4.0,10.0,85,0.00,,,0.35,30.000000,,2013-10-06 15:02:00,
2013-10-06 10:44:00,61.0,49.0,-100.00,NW,323,7.0,13.0,64,0.00,,,0.35,212.000000,,2013-10-06 15:44:00,
2013-10-06 10:54:00,61.0,49.0,-100.00,NW,323,7.0,13.0,64,0.00,,,0.35,212.000000,,2013-10-06 15:54:00,
2013-10-06 11:03:00,61.0,49.0,-100.00,NW,323,7.0,13.0,64,0.00,,,0.35,212.000000,,2013-10-06 16:03:00,
2013-10-06 11:43:00,67.0,43.0,-100.00,NNW,331,6.0,15.0,42,0.00,,,0.35,667.000000,,2013-10-06 16:43:00,
2013-10-06 11:53:00,67.0,43.0,-100.00,NNW,331,6.0,15.0,42,0.00,,,0.35,667.000000,,2013-10-06 16:53:00,
2013-10-06 12:02:00,67.0,43.0,-100.00,NNW,331,6.0,15.0,42,0.00,,,0.35,667.000000,,2013-10-06 17:02:00,
2013-10-06 12:42:00,70.0,41.0,-100.00,NNW,339,8.0,13.0,35,0.00,,,0.35,811.000000,,2013-10-06 17:42:00,
2013-10-06 12:52:00,70.0,41.0,-100.00,NNW,339,8.0,13.0,35,0.00,,,0.35,811.000000,,2013-10-06 17:52:00,
2013-10-06 13:02:00,70.0,41.0,-100.00,NNW,339,8.0,13.0,35,0.00,,,0.35,811.000000,,2013-10-06 18:02:00,
2013-10-06 13:43:00,71.0,37.0,-100.00,NW,324,8.0,15.0,29,0.00,,,0.35,913.000000,,2013-10-06 18:43:00,
2013-10-06 13:52:00,71.0,37.0,-100.00,NW,324,8.0,15.0,29,0.00,,,0.35,913.000000,,2013-10-06 18:52:00,
2013-10-06 14:01:00,71.0,37.0,-100.00,NW,324,8.0,15.0,29,0.00,,,0.35,913.000000,,2013-10-06 19:01:00,
2013-10-06 14:42:00,72.0,38.0,-100.00,NNW,343,8.0,15.0,29,0.00,,,0.35,927.000000,,2013-10-06 19:42:00,
2013-10-06 14:53:00,72.0,38.0,-100.00,NNW,343,8.0,15.0,29,0.00,,,0.35,927.000000,,2013-10-06 19:53:00,
2013-10-06 15:02:00,72.0,38.0,-100.00,NNW,343,8.0,15.0,29,0.00,,,0.35,927.000000,,2013-10-06 20:02:00,
2013-10-06 15:42:00,74.0,38.0,-100.00,NW,313,6.0,13.0,27,0.00,,,0.35,866.000000,,2013-10-06 20:42:00,
2013-10-06 15:52:00,74.0,38.0,-100.00,NW,313,6.0,13.0,27,0.00,,,0.35,866.000000,,2013-10-06 20:52:00,
2013-10-06 16:01:00,74.0,38.0,-100.00,NW,313,6.0,13.0,27,0.00,,,0.35,866.000000,,2013-10-06 21:01:00,
2013-10-06 16:44:00,75.0,34.0,-100.00,NW,322,7.0,17.0,22,0.00,,,0.35,744.000000,,2013-10-06 21:44:00,
2013-10-06 16:55:00,75.0,34.0,-100.00,NW,322,7.0,17.0,22,0.00,,,0.35,744.000000,,2013-10-06 21:55:00,
2013-10-06 17:04:00,75.0,34.0,-100.00,NW,322,7.0,17.0,22,0.00,,,0.35,744.000000,,2013-10-06 22:04:00,
2013-10-06 17:43:00,76.0,32.0,-100.00,NW,317,8.0,17.0,20,0.00,,,0.35,567.000000,,2013-10-06 22:43:00,
2013-10-06 17:54:00,76.0,32.0,-100.00,NW,317,8.0,17.0,20,0.00,,,0.35,567.000000,,2013-10-06 22:54:00,
2013-10-06 18:03:00,76.0,32.0,-100.00,NW,317,8.0,17.0,20,0.00,,,0.35,567.000000,,2013-10-06 23:03:00,
2013-10-06 18:42:00,75.0,31.0,-100.00,NW,319,6.0,16.0,20,0.00,,,0.35,343.000000,,2013-10-06 23:42:00,
2013-10-06 18:53:00,75.0,31.0,-100.00,NW,319,6.0,16.0,20,0.00,,,0.35,343.000000,,2013-10-06 23:53:00,
2013-10-06 19:02:00,75.0,31.0,-100.00,NW,319,6.0,16.0,20,0.00,,,0.35,343.000000,,2013-10-07 00:02:00,
2013-10-06 19:42:00,71.0,33.0,-100.00,NW,310,3.0,10.0,25,0.00,,,0.35,88.000000,,2013-10-07 00:42:00,
2013-10-06 19:52:00,71.0,33.0,-100.00,NW,310,3.0,10.0,25,0.00,,,0.35,88.000000,,2013-10-07 00:52:00,
2013-10-06 20:02:00,71.0,33.0,-100.00,NW,310,3.0,10.0,25,0.00,,,0.35,88.000000,,2013-10-07 01:02:00,
2013-10-06 20:42:00,69.0,38.0,-100.00,WNW,303,4.0,8.0,32,0.00,,,0.07,1.000000,,2013-10-07 01:42:00,
2013-10-06 20:53:00,69.0,38.0,-100.00,WNW,303,4.0,8.0,32,0.00,,,0.07,1.000000,,2013-10-07 01:53:00,
2013-10-06 21:02:00,69.0,38.0,-100.00,WNW,303,4.0,8.0,32,0.00,,,0.07,1.000000,,2013-10-07 02:02:00,
2013-10-06 21:42:00,66.0,37.0,-100.00,WNW,301,2.0,7.0,34,0.00,,,0.05,0.000000,,2013-10-07 02:42:00,
2013-10-06 21:53:00,66.0,37.0,-100.00,WNW,301,2.0,7.0,34,0.00,,,0.05,0.000000,,2013-10-07 02:53:00,
2013-10-06 22:02:00,66.0,37.0,-100.00,WNW,301,2.0,7.0,34,0.00,,,0.05,0.000000,,2013-10-07 03:02:00,
2013-10-06 22:54:00,58.0,38.0,-100.00,SE,132,2.0,5.0,47,0.00,,,0.05,0.000000,,2013-10-07 03:54:00,
2013-10-06 23:04:00,58.0,38.0,-100.00,SE,132,2.0,5.0,47,0.00,,,0.05,0.000000,,2013-10-07 04:04:00,